TimeCST,TemperatureF,Dew PointF,Humidity,Sea Level PressureIn,VisibilityMPH,Wind Direction,Wind SpeedMPH,Gust SpeedMPH,PrecipitationIn,Events,Conditions,WindDirDegrees,DateUTC
12:53 AM,33.1,30.0,89,29.92,6.0,ENE,4.6,-,N/A,,Clear,60,2013-12-02 06:53:00
1:53 AM,35.1,32.0,89,29.92,6.0,NE,4.6,-,N/A,,Scattered Clouds,40,2013-12-02 07:53:00
2:53 AM,34.0,32.0,92,29.92,5.0,NNE,5.8,-,N/A,,Overcast,20,2013-12-02 08:53:00
3:53 AM,34.0,32.0,92,29.89,4.0,ENE,5.8,-,N/A,,Mostly Cloudy,70,2013-12-02 09:53:00
4:53 AM,34.0,32.0,92,29.89,4.0,NE,4.6,-,N/A,,Overcast,40,2013-12-02 10:53:00
5:53 AM,33.1,30.9,92,29.87,3.0,East,4.6,-,N/A,,Scattered Clouds,80,2013-12-02 11:53:00
6:53 AM,33.1,32.0,96,29.87,3.0,ENE,4.6,-,N/A,,Overcast,70,2013-12-02 12:53:00
7:12 AM,34.0,32.0,92,29.85,2.0,East,4.6,-,N/A,,Overcast,80,2013-12-02 13:12:00
7:53 AM,35.1,33.1,92,29.86,2.5,East,4.6,-,N/A,,Overcast,100,2013-12-02 13:53:00
8:04 AM,36.0,33.1,89,29.84,3.0,East,6.9,-,N/A,,Mostly Cloudy,100,2013-12-02 14:04:00
8:53 AM,39.0,34.0,82,29.85,4.0,East,8.1,-,N/A,,Haze,100,2013-12-02 14:53:00
9:53 AM,42.1,36.0,79,29.84,5.0,SE,6.9,-,N/A,,Haze,140,2013-12-02 15:53:00
10:53 AM,45.0,37.0,74,29.82,5.0,SE,8.1,-,N/A,,Haze,140,2013-12-02 16:53:00
11:53 AM,46.0,39.0,76,29.79,6.0,SE,4.6,-,N/A,,Haze,130,2013-12-02 17:53:00
12:40 PM,46.9,39.0,74,29.76,6.0,SE,5.8,-,N/A,,Haze,130,2013-12-02 18:40:00
12:53 PM,46.9,39.0,74,29.77,6.0,ESE,6.9,-,N/A,,Haze,120,2013-12-02 18:53:00
1:04 PM,46.9,39.0,74,29.75,6.0,SE,5.8,-,N/A,,Haze,140,2013-12-02 19:04:00
1:53 PM,46.9,39.9,77,29.76,7.0,SE,4.6,-,N/A,,Overcast,130,2013-12-02 19:53:00
2:51 PM,46.4,42.8,87,29.74,5.0,ESE,4.6,-,0.00,Rain,Light Rain,120,2013-12-02 20:51:00
2:53 PM,46.9,42.1,83,29.75,6.0,ESE,5.8,-,0.00,Rain,Light Rain,120,2013-12-02 20:53:00
3:11 PM,46.9,42.1,83,29.74,5.0,ESE,3.5,-,0.00,Rain,Light Rain,120,2013-12-02 21:11:00
3:53 PM,46.0,43.0,89,29.75,5.0,ESE,4.6,-,0.00,Rain,Light Rain,110,2013-12-02 21:53:00
4:02 PM,46.0,43.0,89,29.73,5.0,ESE,3.5,-,0.00,,Overcast,110,2013-12-02 22:02:00
4:53 PM,44.1,41.0,89,29.74,5.0,East,3.5,-,0.00,,Mostly Cloudy,90,2013-12-02 22:53:00
5:53 PM,45.0,41.0,86,29.75,6.0,SE,6.9,-,N/A,,Overcast,130,2013-12-02 23:53:00
6:53 PM,43.0,39.9,89,29.75,7.0,SE,6.9,-,N/A,,Mostly Cloudy,130,2013-12-03 00:53:00
7:02 PM,43.0,39.0,86,29.73,7.0,SE,6.9,-,N/A,,Scattered Clouds,130,2013-12-03 01:02:00
7:53 PM,43.0,39.9,89,29.76,7.0,SSE,6.9,-,N/A,,Mostly Cloudy,150,2013-12-03 01:53:00
8:53 PM,42.1,39.0,89,29.75,7.0,SE,6.9,-,N/A,,Clear,130,2013-12-03 02:53:00
9:53 PM,41.0,37.9,89,29.75,6.0,SSE,6.9,-,N/A,,Clear,150,2013-12-03 03:53:00
10:53 PM,42.1,39.0,89,29.73,6.0,SSE,8.1,-,N/A,,Clear,150,2013-12-03 04:53:00
11:53 PM,41.0,37.9,89,29.72,5.0,SSE,6.9,-,N/A,,Partly Cloudy,150,2013-12-03 05:53:00